Home   Weather   Nøtterøy   Past weeks
Flag for Norway

Past Weather in Nøtterøy, Norway — Yesterday and Last 2 Weeks

Now
43 °F

Fog.


Feels Like: 43 °F
Forecast: 50 / 42 °F
Wind: 2 mph from North

Location: Torp

Current Time: Apr 7, 2020 at 3:31:20 am

Latest Report: Apr 7, 2020 at 2:50 am


Visibility: 2 mi

Pressure: 30.01 "Hg

Humidity: 93%

Dew Point: 41 °F

Location of NøtterøyLocation

Past Weather in Nøtterøy — Graph

°F

Nøtterøy Temperature Yesterday

Maximum temperature yesterday: 50 °F (at 1:50 pm)
Minimum temperature yesterday: 32 °F (at 7:20 am)
Average temperature yesterday: 43 °F

High & Low Weather Summary for the Past Weeks

 TemperatureHumidityPressure
High54 °F (Mar 31, 3:20 pm)100% (Mar 26, 1:50 am)30.57 "Hg (Mar 26, 1:50 am)
Low27 °F (Mar 29, 5:20 am)21% (Apr 3, 2:20 pm)28.91 "Hg (Apr 2, 6:20 pm)
Average40 °F65%30.11 "Hg
* Reported Mar 23 5:20 am — Apr 7 2:20 am, Nøtterøy. Weather by CustomWeather, © 2020

Note: Actual official high and low records may vary slightly from our data, if they occured in-between our weather recording intervals... More about our weather records

Nøtterøy Weather History for the Previous 24 Hours

Scroll right to see more
 ConditionsComfort  
Time TempWeatherWind HumidityBarometerVisibility
2:20 am
Tue, Apr 7
43 °FFog.5 mph100%30.01 "Hg2 mi
1:50 am43 °FPassing clouds.5 mph100%30.01 "Hg3 mi
1:20 am43 °FLight rain. Overcast.No wind93%30.01 "Hg3 mi
12:50 am43 °FLight rain. Mostly cloudy.3 mph93%30.01 "Hg4 mi
12:20 am43 °FLight rain. Mostly cloudy.5 mph93%30.01 "Hg4 mi
11:50 pm
Mon, Apr 6
43 °FMostly cloudy.1 mph87%30.04 "HgN/A
11:20 pm41 °FOvercast.3 mph93%30.04 "HgN/A
10:50 pm43 °FOvercast.No wind81%30.04 "HgN/A
10:20 pm41 °FOvercast.2 mph87%30.04 "HgN/A
9:50 pm41 °FPassing clouds.No wind81%30.04 "HgN/A
9:20 pm41 °FClear.2 mph87%30.04 "Hg10 mi
8:50 pm43 °FClear.3 mph81%30.04 "Hg10 mi
8:20 pm45 °FClear.5 mph71%30.07 "Hg10 mi
7:50 pm46 °FSunny.8 mph71%30.07 "Hg10 mi
7:20 pm48 °FSunny.10 mph66%30.07 "Hg10 mi
6:50 pm48 °FSunny.12 mph62%30.07 "Hg10 mi
6:20 pm48 °FSunny.12 mph66%30.07 "Hg10 mi
5:50 pm48 °FSunny.12 mph66%30.09 "Hg10 mi
5:20 pm48 °FSunny.12 mph66%30.09 "Hg10 mi
4:50 pm50 °FPassing clouds.14 mph62%30.09 "HgN/A
4:20 pm50 °FSunny.15 mph58%30.09 "Hg10 mi
3:50 pm50 °FSunny.15 mph58%30.12 "Hg10 mi
3:20 pm50 °FSunny.13 mph58%30.12 "Hg10 mi
2:50 pm48 °FSunny.15 mph62%30.12 "Hg10 mi
2:20 pm50 °FSunny.14 mph58%30.12 "Hg10 mi
1:50 pm50 °FPassing clouds.14 mph58%30.15 "HgN/A
1:20 pm48 °FSunny.17 mph62%30.15 "Hg10 mi
12:50 pm48 °FSunny.16 mph62%30.15 "Hg10 mi
12:20 pm48 °FSunny.14 mph62%30.15 "Hg10 mi
11:50 am48 °FSunny.16 mph62%30.15 "Hg10 mi
11:20 am46 °FSunny.16 mph66%30.15 "Hg10 mi
10:50 am46 °FPassing clouds.8 mph76%30.15 "HgN/A
10:20 am46 °FPassing clouds.8 mph76%30.15 "HgN/A
9:50 am45 °FSunny.1 mph87%30.18 "Hg10 mi
9:20 am41 °FSunny.3 mph100%30.18 "Hg10 mi
8:50 am37 °FSunny.3 mph100%30.18 "Hg10 mi
8:20 am36 °FSunny.2 mph100%30.18 "Hg10 mi
7:50 am34 °FLight fog.3 mph100%30.18 "Hg0 mi
7:20 am32 °FLight fog.2 mph100%30.18 "Hg0 mi
6:50 am34 °FFog.2 mph100%30.18 "Hg0 mi
6:20 am36 °FLight fog.1 mph100%30.18 "Hg0 mi
5:20 am37 °FChilly.3 mph100%30.18 "Hg0 mi
4:50 am37 °FChilly.3 mph100%30.21 "Hg0 mi
4:20 am37 °FChilly.3 mph100%30.21 "Hg1 mi
3:50 am37 °FChilly.3 mph100%30.21 "Hg0 mi
3:20 am37 °FChilly.1 mph100%30.21 "Hg1 mi
Weather by CustomWeather, © 2020

See weather overview

Advertising